SOMP2 (42701 NORAD) Tracking and Keplerian Element Data

This shows tracking and keplerian element data for the satellite.

Feedback or suggestion? Click here.




ElementValue
Catalog42701
NameSOMP2
Epoch Orbit6596
Epoch Day193.45566681
Epoch Year2018
RAAN226.9832
Inclination51.6338
Eccentricity0.0004939
Argument of Perigee354.6174
Mean Anonmoly5.477
Mean Motion15.71391377
Decay Rate0.00020665
L11 42701U 98067LJ 18193.45566681 .00020665 00000-0 16292-3 0 9999
L22 42701 051.6338 226.9832 0004939 354.6174 005.4770 15.71391377065962

Live tracking and technical data element details for SOMP2 (NORAD 42701). SOMP2 can be tracked NOW for your location showing map with azimuth and elevation plus other details from your city location.

Track the satellite on the map from your city or location and see movement details for azimuth, elevation, latitude, longitude, range, height, and movement on the map or in text.







IsCatalogInMostPopularTable: catalog: 42701, numindb: 82
Update: records affected: 1



GetName: 42701 SOMP2

Hit Count: updated at: Sun, 15 Jul 2018 23:06:34 GMT